Dewpoint
50 51 52 55 56 58 57 56 56 56 57 57 57 57 58 59 62 59 58 59 59 60 61 58 57 58 58 58 59 58 58 59 58 57 57 57 57 57 59 58 58 58 57 57 58 57 56 55 56 59 60 59 58 57 56 55 55 54 54 54 52 52 53
52 54 58 59 57 57 56 55 55 55 56 56 56 56 56 58 61 60 58 58 59 60 61 58 57 57 57 57 57 57 57 57 58 58 57 57 56 57 58 57 56 56 57 57 56 56 57 56 56 56 56 57 57 57 56 55 54 55 54 54 52 51 52
56 54 55 55 55 55 55 55 55 55 55 55 55 55 56 56 58 60 58 58 58 60 60 57 57 56 56 56 56 56 56 56 56 57 57 56 57 57 56 56 55 55 56 56 56 56 56 57 56 55 56 55 54 56 57 56 54 54 53 54 52 51 50
53 54 54 54 55 55 55 55 54 54 54 54 54 54 55 55 58 60 58 57 60 59 58 57 56 56 56 56 56 56 55 55 55 55 55 56 56 56 56 56 57 56 55 55 55 54 54 55 56 56 55 55 54 55 56 55 55 54 52 53 52 51 50
54 54 54 54 55 55 54 55 54 53 53 53 53 53 54 54 58 56 57 57 59 57 57 56 56 56 56 55 55 55 54 54 55 55 54 54 55 55 55 55 56 56 56 56 56 55 55 56 56 55 55 55 55 55 56 56 55 53 52 51 51 50 49
54 54 54 54 54 55 54 54 53 53 52 52 52 53 53 54 57 56 57 57 57 57 57 56 56 56 55 55 54 53 53 53 53 53 53 53 53 54 54 54 55 55 55 55 56 56 56 56 57 55 56 57 54 55 56 56 53 52 51 49 48 47 45
53 53 53 54 54 55 54 54 53 53 53 52 52 52 53 56 56 56 56 56 56 56 57 57 55 55 55 55 53 53 53 53 53 52 52 53 53 52 53 53 53 53 53 54 55 56 56 57 56 55 54 55 55 53 53 53 54 50 49 49 48 48 45
54 54 54 55 55 54 54 53 52 52 52 52 52 53 56 55 56 56 58 56 56 55 55 54 54 53 53 53 53 53 53 53 52 53 52 52 52 51 52 52 53 52 52 53 54 56 58 57 57 56 55 51 51 51 50 51 51 49 49 49 47 45 45
58 55 56 56 54 54 54 53 53 52 52 51 51 55 53 55 55 55 55 55 55 54 54 53 53 53 53 52 51 51 51 53 51 51 51 51 51 51 51 51 51 50 51 51 52 53 55 58 57 57 56 53 50 48 48 49 49 49 50 46 46 47 45
55 54 55 54 54 54 53 53 53 52 53 53 52 55 54 54 56 55 55 54 53 53 52 52 52 52 51 51 51 50 50 51 51 51 51 50 50 51 50 50 50 49 49 50 50 51 54 57 58 57 57 54 52 48 47 46 46 49 50 48 46 46 46
54 54 54 53 53 53 53 53 53 52 52 52 55 55 54 54 54 56 54 53 53 52 51 51 51 51 51 51 50 50 49 49 49 48 49 49 49 50 49 48 48 48 48 48 48 49 51 54 57 57 57 55 53 50 49 46 43 44 49 49 50 46 47
53 53 53 54 53 53 52 52 51 51 51 54 54 51 53 53 53 53 52 52 52 51 50 50 50 50 49 49 50 48 48 48 47 46 47 48 48 48 48 48 48 47 48 47 47 48 48 50 54 56 56 55 55 52 49 46 44 42 44 48 47 48 47
54 53 53 53 53 52 52 52 51 51 50 54 51 51 52 53 53 51 51 51 50 49 49 49 49 48 48 47 47 46 45 46 45 45 45 45 46 47 47 46 46 46 47 46 47 47 47 48 51 54 55 53 51 50 50 47 44 42 42 47 47 47 47
53 53 53 52 52 52 52 53 51 50 52 48 49 50 51 51 52 51 51 51 49 49 48 48 48 47 47 45 45 44 43 43 43 43 45 44 44 45 46 44 44 45 46 46 46 46 46 47 50 52 52 50 48 47 46 45 44 44 44 45 47 46 46
54 53 52 52 52 51 51 52 51 52 48 48 50 50 51 52 50 49 48 47 47 47 48 47 47 46 44 43 42 42 42 42 41 41 41 41 42 44 44 44 43 44 45 44 44 44 45 45 46 47 47 47 44 45 46 45 46 46 44 44 44 44 44
53 52 51 51 51 51 51 51 52 49 48 47 51 50 50 50 49 48 47 47 47 47 47 45 45 43 42 40 38 39 39 39 40 40 39 39 39 42 43 43 42 43 44 43 43 44 45 44 44 43 43 43 44 43 45 46 45 44 43 40 41 42 42
52 52 51 50 50 51 51 50 53 48 48 48 48 51 49 49 47 47 47 47 47 47 45 44 42 41 39 38 37 35 35 36 37 37 39 40 39 40 41 41 41 42 43 42 42 42 43 43 43 42 41 42 43 43 44 44 45 43 42 40 39 39 40
51 50 50 50 50 50 50 50 52 48 48 47 47 49 51 48 47 46 46 46 46 46 45 42 39 37 37 37 36 36 35 34 35 35 36 38 42 39 40 40 40 41 42 42 42 41 41 41 40 41 41 40 40 41 42 43 43 43 41 40 38 39 40
50 50 50 49 49 49 50 50 50 50 48 48 47 47 48 48 47 46 45 46 46 45 43 40 38 36 35 35 35 35 35 35 35 35 36 37 38 40 40 40 39 40 40 41 41 41 41 40 39 39 39 39 37 39 40 40 41 41 40 39 39 37 39
51 50 50 49 49 49 49 49 49 48 50 47 46 46 46 47 48 46 45 46 45 44 41 38 36 34 33 33 33 33 34 35 35 37 37 38 39 40 41 41 42 40 40 40 40 40 40 41 40 40 40 39 38 39 39 39 38 39 39 38 37 38 38
50 50 50 49 49 49 49 48 48 49 50 47 46 45 46 46 47 45 45 45 45 45 40 37 34 33 34 35 35 34 35 36 36 37 38 38 40 41 42 42 43 44 44 42 40 40 40 40 40 39 39 38 38 38 37 38 38 37 37 37 37 36 36
51 50 50 49 49 49 48 48 47 48 49 48 48 46 46 45 44 44 44 45 45 44 40 38 35 33 32 32 33 33 33 35 37 38 38 38 38 38 40 43 44 45 45 45 45 45 44 41 39 39 38 37 38 37 36 36 36 36 36 36 36 37 38
50 50 49 48 48 48 48 47 47 48 48 47 47 46 45 45 44 44 43 43 44 43 42 40 41 39 38 33 32 33 36 37 37 38 38 36 34 34 34 36 44 45 45 44 44 43 42 43 41 40 38 37 36 35 35 35 35 36 37 36 36 38 37
50 50 49 48 48 48 48 47 47 47 47 46 46 47 44 44 43 43 43 43 43 44 43 42 43 37 37 37 33 35 36 37 38 38 36 34 33 36 35 35 37 40 40 42 42 41 40 40 40 41 41 40 37 36 35 34 34 36 37 35 34 36 37
50 50 49 48 48 48 48 47 46 46 47 46 46 46 44 43 43 43 43 42 43 44 43 46 37 36 36 36 37 37 37 38 38 36 35 34 37 39 38 38 38 39 41 39 37 40 41 40 39 39 38 37 37 38 38 38 36 33 35 35 35 35 36
50 49 49 48 48 48 47 46 46 46 46 46 46 44 43 43 42 42 42 41 41 43 44 44 36 36 36 36 36 38 37 38 39 37 37 39 40 40 39 38 34 32 31 34 31 27 31 35 37 37 38 39 38 37 35 36 37 37 36 36 36 35 35
50 49 49 48 48 48 47 46 46 46 46 47 45 44 43 43 42 41 41 41 42 42 42 44 36 36 35 35 35 36 36 38 38 38 39 41 41 40 38 33 29 28 26 28 28 25 26 28 29 30 31 32 33 36 37 37 37 37 37 37 36 35 35
50 50 49 49 48 47 47 47 46 45 46 46 44 43 42 42 42 43 42 41 41 40 40 42 37 36 35 35 35 36 38 39 39 39 40 41 41 40 37 32 29 27 28 30 32 27 27 28 31 32 33 33 35 36 37 36 36 37 36 36 36 36 36
50 50 49 49 48 47 46 46 46 45 46 46 45 44 43 42 42 41 41 40 41 39 40 39 38 36 35 35 36 39 39 39 39 40 40 40 40 39 37 33 30 29 31 33 34 33 32 32 31 32 32 32 33 34 37 39 38 38 38 36 37 36 36
50 50 50 49 48 48 47 46 46 46 45 45 44 43 42 42 42 41 40 40 40 39 38 39 38 37 35 35 37 38 40 40 40 39 40 40 40 39 38 33 31 30 32 33 34 33 33 34 31 32 31 32 32 33 33 33 37 37 37 37 37 37 38
50 50 50 49 48 48 47 46 45 46 45 44 44 43 42 42 41 41 40 39 39 39 38 39 38 38 35 35 40 38 40 40 40 41 39 39 39 38 38 37 36 32 33 35 34 33 33 36 31 32 32 33 32 32 31 33 35 36 38 38 38 36 36
51 50 50 49 49 49 47 46 45 47 45 45 45 44 45 41 40 39 39 39 43 40 38 39 38 38 37 36 40 39 40 40 39 39 39 39 39 37 37 40 38 36 35 38 34 33 34 36 33 33 33 33 33 32 34 33 34 36 37 37 38 39 37
51 51 50 50 50 49 49 47 46 45 45 44 44 44 45 42 40 39 38 39 41 41 38 38 40 38 39 37 38 40 40 39 40 38 38 38 38 37 36 39 44 38 35 35 34 33 34 35 34 34 34 34 34 34 35 33 36 36 42 38 36 37 38
51 51 51 50 51 50 48 49 48 47 47 45 45 45 45 43 41 40 38 38 38 41 38 37 40 37 39 38 37 39 39 39 39 38 37 40 38 37 36 39 40 40 36 36 36 33 34 35 35 35 35 35 36 39 37 34 42 41 40 40 39 39 37
52 52 51 51 50 49 49 49 48 47 47 45 44 44 45 44 42 41 39 38 36 39 41 42 38 38 38 38 37 38 38 39 39 38 38 38 36 36 36 37 37 39 36 36 36 34 34 35 35 39 37 34 34 36 39 41 42 40 39 36 36 35 35
52 52 51 51 50 50 50 49 47 47 46 44 43 44 44 44 43 42 41 40 37 37 38 43 40 39 38 38 38 38 37 38 36 41 37 37 37 36 35 36 37 37 35 35 36 35 34 35 37 38 35 34 36 36 40 40 40 37 36 35 35 34 34
52 52 51 51 50 50 49 49 48 47 46 46 45 44 44 44 43 42 41 41 40 39 36 38 40 39 39 38 38 38 37 36 36 38 38 37 36 35 33 32 34 35 34 35 36 37 35 36 37 36 34 34 35 38 39 39 36 36 35 33 34 33 33